Weather Roundup
Issued by NWS

Home | Current Version | Previous Version | Graphics & Text | Print | Product List | Glossary Off
Versions: 1 2 3 4 5 6 7 8 9 10 11 12 13 14 15 16 17 18 19 20 21 22 23 24 25 26 27 28 29 30 31 32 33 34 35 36 37 38 39 40 41 42 43 44 45 46 47 48 49 50

135
NZUS93 KARX 231010
HRRWXR

CURRENT HOURLY OBSERVATIONS ACROSS
MUCH OF THE UPPER MISSISSIPPI VALLEY
NATIONAL WEATHER SERVICE LA CROSSE WI
500 AM CDT TUE AUG 23 2016


...SOUTHEAST MINNESOTA...


CITY           SKY/WX    TMP DP  RH WIND       PRES   REMARKS
ROCHESTER      CLEAR     63  60  90 S12       30.02F
ROCHESTER/MAYO FAIR      65  59  81 SE8G17    30.01F
WINONA         CLEAR     68  61  77 S5        30.02S
AUSTIN         CLEAR     61  57  88 S7        30.01S
ALBERT LEA     PTCLDY    64  59  82 S9        30.00S
DODGE CENTER   PTCLDY    63  57  82 S12       30.00S
PRESTON        CLEAR     61  57  86 S9        30.04S
OWATONNA       CLEAR     64  57  77 S10       29.97F
FARIBAULT      CLEAR     64  61  88 SE5       29.97S
$$

...ELSEWHERE IN MINNESOTA...


CITY           SKY/WX    TMP DP  RH WIND       PRES   REMARKS
MINNEAPOLIS    PTCLDY    71  59  65 S10G21    29.93F
INTNL FALLS    CLOUDY    62  61  96 SE5       29.81S
DULUTH         CLEAR     67  61  81 SW14      29.91S
RED WING       PTCLDY    70  57  64 SW9       29.97R
REDWOOD FALLS  PTCLDY    67  60  78 S14       29.86F
MANKATO        PTCLDY    66  57  72 S14       29.93F
WORTHINGTON    CLEAR     65  61  87 S12G18    29.92F
FAIRMONT       NOT AVBL
$$

...SOUTHWEST WISCONSIN...


CITY           SKY/WX    TMP DP  RH WIND       PRES   REMARKS
LA CROSSE      CLEAR     68  66  93 S15       30.04S
PRAIRIE DU CHI CLEAR     63  58  82 E6        30.07F
BOSCOBEL       CLEAR     63  59  87 CALM      30.09F
LONE ROCK      CLEAR     63  58  83 S5        30.10F
PLATTEVILLE    CLEAR     61  60  97 S6        30.12S
FORT MC COY    CLEAR     64  59  86 SW3       30.07S
CAMP DOUGLAS   CLOUDY    58  56  92 SE3       30.07F
MAUSTON-NEW LI CLOUDY    63  59  88 S6        30.07F
VIROQUA        FAIR      62  59  90 S8        30.08F
WIS DELLS      CLEAR     62  57  81 SW9       30.10S
$$

...ELSEWHERE IN WISCONSIN...


CITY           SKY/WX    TMP DP  RH WIND       PRES   REMARKS
MILWAUKEE      PTCLDY    64  57  78 SW8       30.15F
MADISON        CLEAR     64  57  78 S5        30.12S
GREEN BAY      CLEAR     59  59 100 S7        30.11S
EAU CLAIRE     CLEAR     65  59  81 S7        30.00F
BLACK RVR FLS  FAIR      60  60 100 CALM      30.04F
MEDFORD        CLEAR     60  60 100 S6        30.05S
WAUSAU         CLOUDY    63  59  87 S7        30.07R
WIS RAPIDS     CLOUDY    62  60  93 S6        30.09S
MARSHFIELD     CLEAR     59  56  89 S6        30.06F
RICE LAKE      CLEAR     64  58  82 S6        30.01R
$$

...NORTHEAST IOWA...


CITY           SKY/WX    TMP DP  RH WIND       PRES   REMARKS
WATERLOO       PTCLDY    63  58  83 S7        30.04F
DUBUQUE        CLEAR     60  57  89 S8        30.11F
DECORAH        CLEAR     63  59  88 S7        30.05S
MASON CITY     PTCLDY    60  58  92 S8        30.03S
CHARLES CITY   PTCLDY    63  61  94 S9        30.04F
OELWEIN        PTCLDY    61  59  94 S8        30.07F
$$

...ELSEWHERE IN IOWA...


CITY           SKY/WX    TMP DP  RH WIND       PRES   REMARKS
DES MOINES     PTCLDY    65  60  84 S10       30.02F
IOWA CITY      CLEAR     61  58  90 E3        30.10F
FORT DODGE     PTCLDY    64  57  77 S9        30.00S
MARSHALLTOWN   CLEAR     62  60  93 SE9       30.03F
CEDAR RAPIDS   PTCLDY    62  61  96 S8        30.08S
$$

...NORTHERN ILLINOIS...


CITY           SKY/WX    TMP DP  RH WIND       PRES   REMARKS
CHICAGO-OHARE  PTCLDY    61  57  87 S6        30.18S
CHICAGO-MIDWAY PTCLDY    65  57  75 S5        30.18S
MOLINE         CLEAR     61  57  87 S5        30.12S
ROCKFORD       PTCLDY    59  56  89 S5        30.16F
PEORIA         CLEAR     62  59  90 E3        30.16S
$$

NOTE: "FAIR" INDICATES FEW OR NO CLOUDS BELOW 12,000 FEET WITH NO
SIGNIFICANT WEATHER AND/OR OBSTRUCTIONS TO VISIBILITY. WIND
SPEEDS ARE IN MILES-PER-HOUR.




USA.gov is the U.S. government's official web portal to all federal, state and local government web resources and services.